Weather past 2 weeks in Jamestown, Saint Helena

Now
67 °F

Partly sunny.


Feels Like: 67 °F
Forecast: 74 / 77 °F
Wind: 15 mph from Southeast

Location: Saint Helena Island

Current Time: Apr 2, 2015 at 10:32:46 AM

Latest Report: Apr 2, 2015 at 9:00 AM


Visibility: 28 mi

Pressure: 30.05 "Hg

Humidity: 81%

Dew point: 61 °F

Location of JamestownLocation

Historic Weather in Jamestown — Graph

°F

Jamestown temperature yesterday

Maximum temperature yesterday: 74 °F (at 11:00 AM)
Minimum temperature yesterday: 66 °F (at 1:00 AM)
Average temperature yesterday: 69 °F

Past Weeks' High & Low Weather Summary

 TemperatureHumidityPressure
High76 °F (Mar 19, 2:00 PM)99% (Mar 23, 4:00 AM)30.09 "Hg (Mar 23, 4:00 AM)
Low63 °F (Mar 29, 7:00 AM)57% (Apr 1, 3:00 PM)29.85 "Hg (Mar 19, 5:00 AM)
Average70 °F81%29.98 "Hg
* Reported Mar 18 9:00 AM — Apr 2 9:00 AM, Jamestown, Weather by CustomWeather, © 2015

Note: Actual official high and low records may vary slightly from our data, if they occured in-between our weather recording intervals... More about our weather records

Advertising

Jamestown weather history for previous 24 hours

 ConditionsComfort  
Time TempWeatherWind HumidityBarometerVisibility
9:00 AM
Thu, Apr 2
67 °FPartly sunny.15 mph81%30.05 "Hg28 mi
8:00 AM67 °FMild.14 mph92%30.03 "HgN/A
7:00 AM67 °FMild.10 mph81%30.02 "HgN/A
6:00 AM66 °FMild.8 mph85%30.00 "HgN/A
5:00 AM66 °FMild.15 mph82%29.99 "HgN/A
4:00 AM66 °FMild.13 mph86%29.98 "HgN/A
2:00 AM67 °FMild.12 mph83%30.01 "HgN/A
1:00 AM67 °FMild.9 mph82%30.02 "HgN/A
11:00 PM
Wed, Apr 1
67 °FMild.12 mph81%30.03 "HgN/A
10:00 PM67 °FMild.10 mph80%30.03 "HgN/A
8:00 PM68 °FMild.10 mph80%30.00 "HgN/A
7:00 PM68 °FMild.10 mph81%29.98 "HgN/A
6:00 PM69 °FMild.10 mph80%29.96 "HgN/A
5:00 PM70 °FMild.9 mph73%29.95 "HgN/A
4:00 PM72 °FMild.14 mph69%29.95 "HgN/A
3:00 PM74 °FPartly sunny.9 mph57%29.95 "Hg40 mi
2:00 PM73 °FScattered clouds.14 mph64%29.98 "Hg37 mi
1:00 PM72 °FPartly sunny.17 mph76%30.01 "Hg37 mi
12:00 PM73 °FPartly sunny.13 mph65%30.02 "Hg34 mi
11:00 AM74 °FPartly sunny.10 mph67%30.03 "Hg37 mi
10:00 AM71 °FPartly sunny.14 mph79%30.04 "Hg31 mi
Weather by CustomWeather, © 2015

See weather overviewHow to use our weather pages